RH
27 27 27 27 30 33 37 38 36 34 32 31 33 44 57 66 66 63 60 56 55 54 54 55 56 59 62 63 63 63 64 65 66 66 66 66 66 67 66 66 64 63 62 61 60 59 57 57 56 56 55 54 54 54 53 54 53 53 53 53 53 52 53 53 52 50 45 45 51 46 36 37 39 37 32 27 28 27 25 23 22 22 22 24 26 25 25 24
30 30 29 29 29 32 35 38 39 38 35 33 31 33 42 56 67 72 71 67 63 60 59 60 61 62 64 66 67 67 67 65 65 65 66 66 67 67 67 67 67 67 66 65 64 63 62 61 61 60 59 58 57 56 56 55 54 54 53 52 52 52 52 50 48 45 40 43 49 43 32 30 32 28 20 19 23 21 18 16 15 16 18 21 22 22 24 25
27 29 30 30 30 31 34 37 39 40 39 37 34 32 33 38 50 63 73 76 74 68 64 62 62 63 63 64 66 68 68 67 69 69 68 68 67 66 67 67 67 67 67 66 66 64 64 62 61 60 58 58 56 54 54 52 51 50 47 47 47 46 44 41 37 34 35 35 35 31 24 24 24 19 15 16 18 17 16 15 13 13 17 22 21 20 23 22
24 25 27 29 30 31 33 35 37 39 40 39 38 36 34 32 34 42 54 65 73 74 71 67 65 65 65 65 67 68 66 70 74 72 70 71 70 68 67 67 66 66 65 64 63 61 60 58 56 53 51 51 48 47 46 45 43 41 37 37 35 32 29 27 24 24 27 26 25 25 21 20 18 18 21 19 16 18 18 16 14 14 19 22 20 20 22 21
24 24 24 25 26 28 30 32 34 36 38 39 39 38 37 35 33 32 35 42 51 59 65 68 68 67 66 64 65 63 62 68 70 67 69 70 69 68 66 65 64 63 62 60 59 57 55 53 51 48 46 44 42 39 38 34 32 32 27 25 24 21 21 23 21 20 23 25 26 25 21 21 20 22 25 20 18 21 21 20 17 17 22 23 21 22 23 23
25 24 24 24 24 25 26 27 29 31 33 35 37 38 38 37 36 35 33 32 33 37 43 51 57 61 62 62 62 59 59 63 59 57 60 60 60 60 59 58 58 58 57 55 53 51 49 47 44 42 39 36 34 32 31 29 29 28 24 23 24 23 24 26 24 21 24 27 26 25 24 24 24 24 22 21 23 24 23 22 19 19 28 33 32 30 27 25
25 25 25 24 24 24 24 24 25 26 27 29 31 34 36 36 37 36 35 34 32 32 32 33 37 40 44 48 51 52 55 57 54 54 54 53 54 52 52 52 51 51 49 48 46 44 42 40 38 37 36 34 33 33 35 34 33 31 28 28 28 27 26 25 24 22 23 24 24 24 24 25 25 23 22 24 25 23 22 22 22 22 28 34 34 32 28 26
29 30 30 29 28 26 25 24 23 24 24 25 27 28 30 32 33 34 35 35 34 34 32 32 31 30 31 31 33 36 39 41 42 44 45 45 46 45 46 47 47 47 46 45 43 42 40 39 38 37 36 35 34 33 33 31 29 27 25 24 22 21 19 18 17 16 17 18 18 19 20 21 21 21 21 23 23 22 22 23 23 23 24 25 23 24 23 22
39 41 43 43 41 38 34 31 27 26 24 24 23 24 25 26 28 29 31 32 32 33 32 32 31 31 30 29 29 28 28 28 28 29 29 30 30 31 32 32 33 33 33 33 32 31 30 29 29 27 26 25 24 23 22 20 19 18 17 16 15 14 13 13 13 13 14 14 15 16 17 17 17 18 18 18 19 18 19 21 22 23 23 24 21 21 25 25
46 51 56 58 57 53 48 44 39 36 32 29 26 24 23 23 24 24 25 27 27 28 29 29 29 29 29 28 28 28 27 26 25 24 23 22 22 22 22 23 23 22 23 22 22 21 20 20 19 19 18 17 17 17 16 15 15 15 15 14 14 15 15 16 18 18 17 17 19 19 18 18 18 19 16 16 18 17 18 19 20 20 21 26 26 25 28 27
46 53 62 68 68 67 64 58 53 48 43 38 34 31 28 25 24 23 23 23 24 24 25 25 25 25 25 25 25 25 24 24 23 22 21 21 21 21 21 21 20 20 20 19 19 19 18 18 18 17 17 17 17 16 17 18 19 21 21 20 22 24 24 26 25 23 23 22 22 22 21 20 20 19 16 17 18 17 17 20 24 28 38 39 31 28 26 28
44 52 63 72 75 77 77 73 65 60 56 52 49 44 40 36 31 28 26 24 23 23 23 23 23 23 23 22 22 22 22 22 21 21 20 20 20 20 19 19 19 19 19 19 20 21 22 23 23 23 24 25 24 25 28 30 30 33 32 31 31 30 29 28 26 24 23 22 21 21 20 19 19 17 17 17 16 16 19 24 28 33 45 37 24 25 28 40
42 49 61 73 79 83 89 88 81 77 76 75 73 69 64 58 51 44 39 34 31 27 26 25 24 24 23 22 22 22 21 21 20 20 20 19 19 20 19 20 21 23 25 28 31 32 34 35 36 37 38 39 39 40 42 40 39 38 36 33 30 29 28 25 24 25 24 22 23 24 20 20 21 18 17 17 16 18 22 25 23 24 30 28 25 25 28 44
40 46 57 71 80 86 97 101 96 94 93 91 90 89 85 78 72 66 60 54 48 43 40 36 34 33 30 29 28 27 26 25 25 26 25 26 27 29 30 33 36 39 42 45 48 49 50 50 50 51 50 50 49 46 42 38 36 33 31 30 29 30 26 25 31 31 28 25 28 31 26 23 23 20 20 21 20 21 24 25 23 21 22 24 25 24 28 34
38 43 51 66 79 87 99 106 102 101 103 103 101 100 97 91 86 82 76 71 66 62 58 54 52 50 48 48 46 42 41 43 44 44 44 44 46 48 50 53 55 58 60 61 62 61 61 59 56 53 49 46 41 38 35 33 31 31 33 33 35 36 27 30 42 41 32 28 40 45 34 28 25 22 25 27 26 23 25 26 26 24 23 32 34 29 32 32
36 40 46 57 73 85 98 105 103 102 102 105 107 105 104 101 97 94 92 91 88 85 81 78 75 71 74 76 71 66 65 66 66 66 66 64 64 65 65 66 67 68 69 68 65 62 58 52 47 42 38 36 33 33 33 33 35 36 40 40 44 45 35 36 47 55 47 37 54 58 40 35 30 26 31 33 30 27 28 26 29 30 30 46 45 35 33 30
34 37 41 48 62 77 93 103 104 102 100 104 107 105 104 103 100 102 108 110 108 105 102 99 95 91 94 93 88 85 81 79 78 79 78 75 73 71 71 69 68 67 63 59 55 49 44 40 37 35 33 33 35 36 36 38 41 45 48 48 52 54 50 47 48 63 64 51 63 69 55 47 38 34 35 37 38 33 33 30 30 33 34 42 39 36 39 28
33 34 37 41 50 62 80 94 101 103 101 104 108 106 104 102 101 105 113 114 112 112 110 106 102 99 98 94 92 91 86 83 83 82 78 74 70 68 65 62 58 54 49 44 41 37 37 35 34 35 37 39 41 41 44 49 52 55 56 54 61 66 66 62 50 58 72 67 68 72 68 55 45 46 40 41 48 39 37 37 33 37 41 43 37 38 50 54
32 33 35 37 41 48 60 74 86 94 98 101 104 105 103 102 102 106 110 110 108 109 107 102 98 96 95 91 90 89 84 80 77 73 68 64 60 57 53 49 45 41 37 36 36 36 37 37 39 41 43 46 49 51 56 62 62 63 64 64 72 76 74 70 56 55 73 79 72 70 71 63 59 61 49 47 55 49 48 48 41 42 48 55 52 46 53 67
35 34 35 36 38 40 45 53 63 72 80 86 90 93 96 98 98 100 102 100 100 101 99 96 94 93 90 86 83 78 73 69 64 59 56 52 48 45 42 39 37 36 37 38 39 42 43 45 47 47 51 58 61 64 68 71 72 74 78 77 76 78 79 73 58 56 70 80 76 70 71 74 77 74 60 50 55 61 61 55 52 48 47 63 70 57 48 49
39 38 37 37 37 38 40 42 46 52 57 63 69 74 79 85 88 90 90 89 90 92 91 89 86 84 80 75 69 64 59 54 51 48 45 42 40 38 37 38 39 40 43 45 47 49 49 52 52 50 62 71 69 73 77 79 80 83 85 82 77 77 81 73 59 58 66 71 71 69 73 80 86 84 71 57 56 68 68 63 69 63 49 56 66 62 56 50
52 47 43 41 40 39 40 41 41 43 46 48 51 56 60 66 72 75 76 75 76 78 78 73 70 69 66 61 56 52 49 44 44 43 40 39 39 40 43 44 46 49 51 53 54 54 55 56 53 57 69 72 73 80 85 86 85 85 85 85 81 77 78 74 63 57 57 62 64 66 75 82 87 91 85 75 71 72 71 73 78 74 62 56 57 59 62 65
76 67 60 54 49 45 42 42 44 43 43 44 44 46 48 51 54 57 60 60 60 63 62 59 58 56 53 52 51 48 45 45 47 48 48 48 48 50 52 53 57 59 59 58 57 59 63 59 57 69 75 73 82 88 87 88 86 85 84 83 82 77 77 74 64 55 52 59 63 61 69 79 87 94 88 80 79 73 69 75 74 70 71 64 56 53 56 69
101 94 88 82 69 60 55 50 48 47 46 46 46 47 47 48 49 48 48 48 51 53 53 54 53 50 52 55 56 53 52 53 56 61 65 62 62 64 62 65 69 66 64 60 63 69 64 60 72 86 83 78 84 85 82 84 83 83 83 81 80 75 73 70 64 59 53 53 57 59 69 76 81 88 83 73 74 72 65 69 71 71 75 72 64 59 57 63
111 107 105 106 96 82 75 70 62 56 53 53 53 53 52 53 54 50 45 45 50 55 60 65 62 59 63 65 64 63 64 66 67 76 81 75 76 80 80 83 78 71 71 64 69 75 57 63 89 90 80 79 81 79 78 79 79 79 78 77 75 70 68 67 63 62 59 55 56 58 64 71 77 80 77 71 71 72 66 64 69 74 77 76 71 65 58 54
109 110 107 113 115 103 96 94 83 70 67 68 65 64 64 66 70 64 53 55 65 75 82 85 82 76 73 75 80 82 84 85 80 83 94 95 93 94 97 98 89 85 83 71 77 80 59 71 96 85 75 76 75 77 75 73 75 73 73 72 70 68 67 66 64 65 67 65 59 55 58 68 77 78 74 72 70 72 74 69 65 69 72 73 71 66 62 55
111 114 114 113 112 109 110 109 98 85 84 85 81 82 86 89 91 80 67 75 89 96 98 96 91 82 77 88 101 102 102 101 92 88 102 111 104 102 104 103 103 100 89 81 89 87 69 76 89 78 73 72 70 75 73 72 74 69 68 69 68 67 65 67 71 70 73 72 61 59 62 66 75 85 83 77 73 73 77 78 72 64 60 68 74 68 65 61
109 112 116 114 107 108 115 115 106 94 91 94 94 97 101 103 102 90 84 95 104 102 102 101 96 83 78 94 108 109 109 109 103 97 105 112 108 107 106 101 107 103 89 91 96 87 76 78 79 72 69 68 67 69 66 70 73 64 66 71 70 67 63 68 73 74 79 76 67 69 69 66 75 90 91 87 88 84 80 83 82 72 63 67 74 68 69 75
96 106 110 110 105 108 115 119 114 101 92 97 103 103 104 105 103 99 98 103 105 101 98 100 102 90 79 84 92 98 103 103 98 92 95 103 107 110 108 101 106 101 91 94 92 82 75 70 68 64 59 58 57 56 56 60 61 57 63 70 70 70 69 71 74 78 80 72 73 85 79 71 77 88 96 95 88 82 84 82 78 86 85 69 65 72 81 86
70 92 105 105 104 107 111 114 117 111 101 101 108 107 104 104 102 102 102 101 103 102 97 96 100 95 79 72 74 77 82 82 78 76 77 83 89 97 102 99 99 94 85 81 76 69 64 59 58 57 55 55 54 54 53 52 51 50 54 56 58 68 72 73 75 78 78 72 79 91 83 77 81 88 103 100 74 69 85 82 73 93 96 70 71 87 83 75
44 67 89 101 104 107 108 108 111 115 112 109 112 109 103 102 103 102 101 100 101 103 100 94 94 96 84 70 69 67 67 67 65 64 63 63 66 72 77 78 78 74 69 66 63 61 59 59 62 61 61 63 61 60 58 56 54 51 52 50 49 57 61 62 65 66 70 76 86 91 84 79 82 89 103 97 72 65 78 80 79 91 87 70 77 85 69 63
30 42 62 84 100 105 104 103 105 110 112 109 112 112 107 104 101 100 100 102 102 102 100 89 85 95 91 78 76 76 75 78 76 73 70 67 65 61 59 61 62 61 61 61 62 63 63 65 68 69 70 69 68 67 64 61 60 57 57 55 52 55 54 51 52 56 64 75 84 86 81 78 80 93 101 86 69 73 85 92 94 93 87 77 74 70 62 65
30 30 37 57 82 99 103 101 100 104 105 104 107 110 109 106 104 103 101 102 102 100 97 90 84 93 99 95 96 94 94 97 96 92 89 86 82 73 65 60 56 57 60 62 64 64 66 69 72 74 75 75 75 73 70 69 70 69 66 64 62 60 59 56 55 61 65 66 67 70 76 80 79 92 98 80 76 95 103 100 95 95 97 90 80 71 65 64
37 33 31 35 50 74 94 102 102 101 101 102 104 105 105 105 107 106 103 103 104 100 99 95 86 86 97 106 107 104 104 105 99 96 95 93 89 84 78 71 64 61 59 60 63 65 68 72 74 73 75 81 82 76 74 76 80 82 77 74 74 70 68 64 59 60 59 55 54 59 74 81 79 92 99 89 95 109 105 95 92 94 95 91 85 76 69 69
40 39 37 34 33 42 61 83 97 102 102 101 101 102 103 102 104 105 104 103 102 102 103 99 90 86 93 103 106 106 107 105 98 95 95 92 90 90 88 84 79 76 72 69 68 69 74 78 76 72 76 85 85 78 76 80 87 91 86 81 80 77 74 70 63 60 57 54 53 56 66 70 72 93 107 101 100 103 103 101 93 85 82 84 83 76 73 78
43 41 41 40 38 35 36 46 64 80 92 99 102 103 101 100 102 102 101 102 101 102 103 101 97 94 95 98 102 105 106 103 98 98 100 101 100 98 95 94 92 91 91 88 83 82 86 87 82 79 81 82 81 79 78 79 84 89 90 87 81 76 75 73 69 65 60 59 58 56 62 67 72 88 102 100 90 89 101 107 98 89 85 85 87 88 87 85
46 46 45 42 40 41 39 37 38 45 58 71 83 95 102 104 104 102 101 101 101 100 101 102 100 98 99 98 99 102 103 101 100 101 107 109 106 102 99 100 99 96 95 97 96 92 90 86 80 81 83 76 72 76 77 77 80 83 88 87 80 76 76 74 71 67 63 62 62 59 61 70 81 85 86 90 86 83 94 101 99 101 99 95 95 94 91 89
47 49 49 45 44 43 42 42 41 39 38 40 48 62 78 89 96 103 104 102 102 102 100 101 101 99 101 102 101 101 99 98 98 100 106 108 104 105 104 100 97 94 91 93 95 89 88 88 82 82 86 77 73 77 76 79 84 83 83 83 81 80 79 77 75 71 67 63 64 68 71 79 95 95 83 82 83 84 92 93 89 90 92 91 89 82 79 83
49 51 47 47 53 51 43 41 43 42 41 42 42 42 46 54 64 75 84 90 99 104 102 103 104 102 101 101 100 100 100 98 94 93 99 100 98 102 105 100 97 96 90 90 92 87 87 93 92 90 89 82 79 81 81 85 87 83 79 76 76 77 76 78 81 78 75 74 76 82 88 93 102 104 96 88 88 95 104 101 85 79 81 80 76 71 70 74
53 53 49 50 54 51 47 45 44 42 42 44 49 50 46 43 42 44 47 57 68 76 85 92 97 101 103 104 103 103 104 100 95 96 98 98 98 102 106 102 98 97 94 95 97 90 84 87 93 96 94 88 85 85 85 85 81 78 78 73 70 76 84 90 97 95 90 90 95 99 103 104 103 107 109 102 99 106 112 106 91 86 88 80 69 63 62 66
59 54 53 61 60 48 45 48 50 49 46 44 44 48 50 48 50 48 42 42 42 43 51 57 63 72 80 87 92 97 100 95 93 96 96 95 94 94 95 94 90 89 92 95 91 84 79 80 84 92 94 91 90 89 82 79 82 82 81 79 77 80 88 94 100 104 102 100 101 99 102 104 102 106 111 105 103 108 111 108 101 98 100 89 73 66 65 65
67 59 59 70 66 50 44 47 52 53 53 53 50 46 42 41 49 53 48 50 49 45 44 42 43 47 50 56 63 69 73 73 74 78 81 80 76 70 68 69 70 71 74 79 73 65 68 73 77 87 94 91 95 97 85 82 94 97 91 94 93 85 87 97 103 104 104 104 103 101 104 104 102 107 111 105 106 111 110 107 102 99 101 92 78 74 72 69
71 66 69 76 68 54 50 51 54 54 52 54 56 55 51 45 44 42 40 46 54 56 55 50 46 46 46 49 52 54 54 54 56 59 63 65 56 49 46 46 55 60 56 59 58 53 65 77 76 81 88 90 97 102 97 95 104 104 101 103 101 93 93 100 104 103 104 108 110 109 109 106 104 110 109 103 106 109 106 103 100 95 93 88 81 78 75 71
75 69 74 84 78 65 60 57 56 57 56 55 55 55 55 53 51 47 41 40 43 45 48 55 62 59 52 49 50 55 57 56 57 56 59 62 50 42 40 38 50 58 45 41 46 51 66 76 70 71 78 86 98 106 104 103 103 101 99 93 92 99 100 89 87 92 96 103 106 103 105 109 109 110 108 104 107 109 105 101 95 91 92 90 86 82 77 73
76 72 73 85 88 78 70 64 59 61 63 62 59 55 55 57 57 53 51 49 45 40 37 46 60 61 58 59 58 58 60 61 64 66 71 74 62 52 48 42 50 59 49 44 49 49 51 54 56 64 70 76 91 105 107 102 94 94 99 94 90 95 93 84 87 88 85 91 96 95 102 110 110 109 108 107 107 107 107 102 93 88 88 86 81 77 74 74
69 71 73 82 89 85 78 73 70 70 68 66 66 65 64 64 61 53 52 53 51 49 46 43 44 45 51 63 65 66 70 69 66 68 74 79 72 61 55 54 61 66 64 63 62 55 50 48 50 56 60 64 78 95 107 105 92 89 96 99 97 92 85 84 91 91 87 89 93 97 103 107 109 109 104 102 106 110 110 105 96 85 79 76 75 75 74 74
62 65 69 76 84 85 81 79 80 79 75 72 75 77 72 66 62 56 57 57 48 48 58 58 50 45 44 47 51 56 68 77 76 74 74 77 74 60 55 64 72 74 77 78 71 68 67 61 58 59 59 62 69 79 93 101 96 90 87 87 92 96 95 91 88 90 93 87 86 100 111 108 106 107 102 98 99 103 105 101 92 84 77 73 73 75 76 76
59 61 62 66 73 78 79 82 86 87 82 77 77 82 82 77 70 61 58 62 53 49 63 65 56 57 55 49 45 41 46 61 71 72 72 78 83 75 65 68 72 74 83 83 74 75 80 76 74 75 70 67 68 70 78 87 91 90 87 85 88 91 94 91 83 84 89 82 79 97 111 110 108 108 107 101 88 82 87 91 86 82 76 69 68 71 73 74
55 58 59 60 61 65 70 77 86 88 85 81 76 79 85 85 81 70 59 61 60 54 62 67 62 65 64 55 55 53 46 47 50 51 53 60 76 85 75 70 75 80 89 91 80 72 75 76 76 76 74 75 77 76 78 82 84 83 83 84 85 82 82 83 82 85 86 80 81 96 108 111 110 106 106 105 95 80 72 72 73 71 67 63 63 67 70 70
52 54 57 59 57 57 60 63 70 75 76 79 76 74 80 82 85 83 69 63 66 62 62 70 74 74 66 58 60 61 57 57 55 52 51 46 50 60 56 51 58 68 80 98 102 88 76 76 80 78 72 71 76 79 81 85 85 82 80 81 83 82 81 81 86 93 95 88 86 92 95 98 104 110 109 107 105 92 73 63 63 63 67 69 66 64 68 67
49 49 51 55 54 56 58 56 58 61 60 64 65 67 76 82 85 90 78 67 75 78 67 64 73 79 78 71 64 56 58 66 67 64 67 66 60 56 50 44 43 43 46 65 85 86 77 75 84 88 80 77 84 89 88 87 79 70 71 81 91 95 93 92 91 96 103 103 93 82 80 89 102 112 110 103 103 101 88 76 68 63 71 79 73 68 69 65
47 47 48 50 50 52 55 55 55 56 53 56 58 59 68 75 79 85 83 79 87 90 75 66 74 82 79 72 65 64 71 77 74 69 72 73 68 62 59 57 55 51 46 46 50 54 53 51 56 62 62 68 84 93 93 89 79 73 81 93 101 102 99 98 97 97 104 109 103 91 88 92 97 103 106 104 106 105 95 88 85 80 84 90 87 79 71 61
Wind_Speed
71 73 74 75 75 76 76 76 76 76 76 75 75 75 75 75 76 77 78 80 82 84 85 86 87 88 88 89 89 90 90 91 91 92 92 92 93 93 94 94 95 95 96 96 96 97 97 98 98 99 99 100 100 101 101 102 103 103 104 103 103 104 104 105 105 107 109 107 111 111 103 100 104 105 104 103 104 106 106 104 102 100 96 95 95 96 98 98
69 70 71 73 74 74 75 76 76 77 76 76 75 75 75 76 76 76 77 78 80 82 83 84 86 87 87 88 89 89 90 90 90 91 91 92 93 93 94 95 95 96 97 97 97 98 98 99 100 101 101 102 102 103 103 104 105 105 105 104 104 105 106 106 106 107 107 106 109 111 104 100 103 106 102 98 101 102 102 101 98 95 92 90 91 92 93 93
67 68 69 70 71 73 74 75 76 76 77 76 76 76 76 76 76 76 77 77 78 80 81 83 84 85 87 87 88 88 89 89 90 90 91 92 93 93 94 95 95 96 97 97 98 99 100 101 102 102 103 104 104 105 105 105 106 106 105 104 105 106 106 107 106 104 104 105 106 107 101 97 100 100 97 95 96 98 98 98 95 90 88 88 88 89 90 91
66 66 67 68 69 70 72 73 74 75 76 76 76 76 76 76 76 76 77 78 78 79 79 81 82 83 84 86 86 87 87 88 89 90 91 92 92 93 94 95 95 96 97 98 99 99 100 101 102 103 103 104 104 104 104 104 105 105 104 103 104 104 103 103 101 97 98 99 99 99 96 94 95 91 92 93 92 93 94 94 93 87 84 86 87 88 88 88
63 64 65 66 67 68 69 70 72 73 74 75 76 76 76 76 76 76 77 77 78 78 79 79 80 81 82 83 84 85 85 86 87 89 90 91 92 93 94 95 95 96 97 98 99 99 100 101 101 102 102 102 102 102 102 101 101 101 100 99 99 98 95 96 95 92 92 93 93 94 92 91 90 87 90 91 88 90 90 89 89 83 81 84 85 85 84 83
60 61 62 63 64 65 67 68 69 70 72 73 74 75 76 76 77 77 77 77 77 78 78 78 79 80 80 81 81 82 83 84 85 86 88 89 90 91 92 93 94 95 96 96 97 97 98 98 98 98 98 98 97 96 96 95 94 94 94 92 92 92 90 90 91 89 89 90 91 91 89 88 87 87 88 86 85 87 85 87 87 79 76 79 81 79 79 78
57 58 59 60 61 62 64 65 66 67 69 70 72 73 74 75 76 76 77 77 77 77 77 77 78 78 78 79 79 79 80 80 82 82 84 84 85 86 87 88 89 89 90 90 91 91 91 91 91 91 91 91 90 89 89 89 88 89 88 87 87 88 87 87 87 86 86 87 88 87 86 86 85 86 84 82 84 84 83 84 82 76 75 79 79 77 76 75
54 54 55 56 57 59 60 62 63 64 66 67 69 70 72 73 74 75 76 76 77 77 77 77 77 77 77 77 77 77 77 78 78 79 79 80 80 81 81 82 82 83 84 84 84 85 85 85 85 85 85 85 84 84 84 84 85 84 83 83 84 84 83 83 81 82 82 82 83 82 82 82 82 82 80 80 80 80 79 78 76 75 76 79 79 76 74 73
51 51 52 53 54 55 56 58 59 61 63 64 66 67 68 70 71 72 73 74 75 75 76 76 76 76 76 76 76 76 76 76 76 76 76 76 77 77 78 78 78 79 79 80 80 80 80 80 81 81 81 81 80 80 81 80 80 79 79 79 79 79 78 77 76 77 77 77 77 77 77 77 77 77 77 75 75 75 74 70 72 73 72 74 74 72 69 66
49 49 50 50 51 52 53 54 56 57 59 60 62 63 65 66 67 69 70 71 72 73 73 74 74 74 74 74 74 74 74 74 74 74 74 74 74 74 75 75 75 75 76 76 76 76 76 76 77 77 77 76 76 77 76 76 75 74 75 75 73 73 73 72 72 72 72 71 71 72 72 72 71 73 73 70 70 71 68 66 69 69 67 68 67 64 62 60
49 49 49 49 49 49 50 51 52 54 55 56 57 59 60 62 63 64 66 67 68 69 70 70 71 71 71 71 71 71 71 71 71 72 71 71 71 71 71 71 71 71 72 72 72 72 71 72 72 72 72 71 71 71 70 70 69 68 70 69 68 68 67 67 67 67 67 67 67 68 68 68 69 70 68 65 67 67 63 63 63 60 59 61 59 57 58 58
50 49 49 49 48 48 48 49 49 50 51 52 53 54 55 56 58 59 61 62 63 64 65 66 66 66 67 67 67 67 67 67 68 68 67 68 67 67 67 67 67 67 67 66 66 66 66 66 66 66 65 65 65 64 63 64 63 63 64 63 63 63 63 63 63 63 64 63 62 64 65 63 65 65 62 61 63 61 58 58 56 54 56 57 56 55 54 52
50 50 49 49 48 48 47 47 48 48 48 49 49 50 51 52 53 54 55 57 58 59 60 60 61 61 61 62 62 62 62 63 63 63 63 63 62 62 62 61 61 61 61 60 60 60 60 60 60 59 59 59 59 58 59 59 58 59 59 60 60 59 60 59 58 58 59 58 56 60 60 57 58 58 56 57 57 54 53 53 53 53 54 53 53 53 50 46
51 50 50 49 48 48 47 46 47 47 47 47 48 48 48 49 50 50 51 52 53 54 55 55 55 56 56 57 57 57 57 57 57 57 57 57 57 56 56 56 55 55 55 55 55 55 55 56 56 55 55 55 55 55 56 55 56 56 56 57 55 56 56 51 50 53 54 52 50 54 55 52 53 50 48 50 49 47 45 46 48 49 48 49 48 47 46 43
51 51 50 49 49 48 48 47 47 46 46 46 47 47 48 48 48 48 49 49 50 50 50 50 51 51 51 51 52 51 51 51 52 52 52 52 52 52 51 51 51 51 52 52 53 53 53 54 54 54 54 54 53 53 53 53 53 52 52 52 50 52 52 44 44 49 51 46 43 48 51 50 49 43 41 44 44 42 40 40 43 44 42 42 41 41 41 38
52 52 51 50 49 48 48 48 47 46 46 46 46 46 47 46 46 46 47 47 47 47 47 47 48 47 47 47 48 47 47 48 48 48 49 49 49 49 49 49 50 50 51 51 52 52 52 52 52 52 52 52 51 51 50 49 49 48 48 47 46 49 47 41 39 43 46 40 38 46 48 47 45 37 36 40 39 37 36 35 36 38 38 38 37 37 39 38
52 52 52 51 50 49 49 49 48 47 46 46 46 46 46 46 46 45 45 46 46 46 46 46 45 44 44 45 45 45 46 46 46 47 47 48 48 48 49 49 49 50 50 51 51 51 51 51 50 50 49 49 48 48 47 46 45 44 44 43 43 45 44 42 37 37 42 39 36 43 45 44 41 35 34 35 35 34 33 33 32 33 34 36 36 36 37 41
52 52 52 52 51 51 50 50 49 48 48 48 47 47 47 46 46 45 45 46 45 45 45 45 45 44 44 45 45 45 46 46 46 46 47 48 48 49 49 49 49 49 49 50 50 49 49 49 48 47 47 46 45 45 43 43 43 42 43 41 40 43 43 42 38 34 39 40 37 40 43 43 38 36 34 31 33 33 31 31 29 29 31 32 34 34 36 42
51 51 52 52 52 52 52 52 51 50 49 49 49 48 48 47 47 46 46 46 45 45 45 45 45 44 45 45 45 46 46 46 46 46 47 48 48 49 49 48 48 48 48 48 48 47 47 47 46 45 44 43 43 42 41 41 42 41 41 40 40 43 43 44 39 33 36 41 40 39 41 42 38 38 35 30 32 32 30 30 29 27 28 30 32 34 37 43
49 50 51 51 52 52 52 52 52 51 51 50 50 50 49 48 48 47 47 46 46 46 46 46 46 45 45 46 46 47 47 47 46 47 47 48 48 48 47 47 47 47 46 46 46 45 45 44 44 42 41 41 41 40 40 41 42 41 41 41 41 42 45 46 39 33 37 41 42 40 39 41 40 41 38 31 30 32 32 30 30 29 28 29 32 34 37 41
46 48 49 50 51 51 52 52 52 52 52 51 51 50 50 50 49 48 47 47 46 46 45 46 46 46 45 46 47 47 47 46 46 47 47 47 46 46 46 46 45 45 44 44 44 44 43 43 43 40 39 42 42 41 42 42 42 42 43 43 42 42 47 49 40 36 39 41 43 41 40 42 43 44 42 35 31 33 34 32 31 33 31 31 33 34 35 37
42 44 45 46 48 49 49 50 50 51 51 51 51 51 50 50 49 49 48 48 47 46 46 46 46 46 45 45 46 47 46 45 45 45 46 45 45 45 45 45 44 43 43 43 43 43 43 43 41 39 41 43 42 42 43 43 43 43 43 44 44 44 47 49 44 39 39 41 44 42 42 44 44 45 45 40 37 36 37 35 35 36 35 34 35 34 34 36
39 40 41 43 44 46 46 47 48 49 49 50 50 50 50 50 49 49 48 48 47 47 47 46 46 46 45 45 46 46 44 44 44 43 44 44 43 43 43 43 43 43 43 42 42 43 43 43 40 41 44 43 43 44 44 44 44 44 44 44 45 45 46 50 47 41 40 42 45 43 44 46 45 46 47 44 43 41 39 39 39 38 38 38 38 35 34 37
38 38 38 40 41 42 43 44 46 47 47 48 48 48 48 48 48 49 48 47 46 46 45 45 45 45 44 45 45 45 44 43 42 42 43 42 41 42 42 42 43 43 43 42 42 44 44 41 40 43 45 43 44 45 44 44 44 44 44 44 45 45 46 49 47 44 44 43 44 44 44 46 46 48 49 47 46 45 42 41 41 40 41 42 41 39 37 38
38 37 38 38 39 40 40 42 43 45 45 45 46 46 46 46 46 47 47 45 44 44 44 44 44 43 43 44 44 43 43 42 41 40 41 41 41 41 41 43 44 43 43 43 43 45 43 39 42 45 44 44 44 45 44 44 44 44 44 44 45 45 45 47 45 44 45 44 44 44 43 45 47 48 50 49 48 46 45 44 42 42 43 45 45 43 40 38
39 39 38 39 39 38 38 39 41 42 42 43 44 44 44 44 44 45 45 42 42 42 42 43 43 43 43 43 43 42 41 41 40 39 40 41 41 41 42 43 44 43 44 43 43 46 42 39 44 45 44 44 43 44 44 43 44 44 43 44 44 43 43 44 44 43 44 45 45 44 43 44 46 48 49 49 47 46 46 46 44 43 44 46 47 46 43 41
42 41 40 40 39 39 38 39 40 40 41 42 42 41 41 41 43 44 42 40 40 42 42 42 43 43 42 41 42 42 41 41 40 38 39 41 41 41 42 43 43 44 44 43 44 44 41 41 44 44 42 42 41 41 41 41 42 42 41 42 42 42 42 42 44 43 43 45 44 42 43 44 44 46 48 47 46 45 46 46 45 45 45 45 46 47 45 44
43 43 42 41 41 40 40 40 40 40 41 41 41 41 41 41 43 43 41 39 40 43 43 42 44 43 40 40 43 43 42 42 41 39 40 42 42 42 43 43 44 45 43 42 44 43 40 40 41 41 40 39 39 39 39 39 41 40 39 41 41 41 41 41 43 43 43 44 43 43 44 43 43 45 46 45 44 45 45 45 45 45 44 43 45 45 44 45
45 45 44 43 42 42 41 41 41 41 41 41 42 41 41 42 43 42 40 39 42 44 44 43 44 43 40 42 44 44 43 43 42 40 40 41 42 43 44 43 44 45 42 42 43 41 39 39 39 39 39 38 38 38 38 40 41 39 39 41 41 40 41 42 43 43 43 43 43 44 45 43 43 44 45 45 44 44 45 45 44 45 46 43 41 41 43 44
45 46 46 45 44 43 42 42 42 41 42 42 43 42 42 43 43 42 42 41 44 46 45 44 44 43 43 43 44 44 45 44 43 41 41 42 42 44 44 44 45 45 43 42 42 41 39 38 39 39 38 38 38 39 39 40 41 39 40 42 41 42 43 43 44 44 44 44 44 47 46 44 43 43 46 48 45 43 45 45 42 44 47 42 38 41 42 39
44 45 46 47 46 45 44 43 43 43 43 43 44 43 43 44 43 43 43 43 46 48 47 47 45 43 45 44 44 46 45 45 44 42 42 42 43 44 44 45 46 45 44 43 42 41 39 39 40 39 39 39 39 40 41 42 42 41 42 43 42 44 45 45 46 46 46 45 47 49 47 44 44 45 48 50 47 44 46 46 42 44 47 42 40 43 41 37
45 45 46 47 48 48 46 45 45 44 44 44 45 45 45 45 44 44 44 45 48 50 49 48 45 44 45 44 46 48 46 46 46 44 43 43 45 46 45 46 47 45 45 44 44 44 42 41 41 41 42 42 41 42 42 43 43 43 44 44 44 46 48 47 47 48 48 48 50 49 48 47 46 48 52 52 47 47 49 48 46 46 48 47 45 44 42 39
43 45 46 47 48 49 49 49 47 46 46 46 47 47 46 46 46 46 47 48 51 52 50 48 46 45 45 46 49 49 47 48 48 45 45 46 47 47 47 48 48 47 47 46 46 46 45 44 45 44 44 44 44 45 44 43 44 45 46 47 47 48 49 49 48 49 50 51 51 50 50 50 49 51 55 53 48 49 52 51 49 48 49 50 49 47 45 43
37 41 45 47 48 49 51 51 51 50 49 48 48 48 46 46 48 48 49 50 52 52 51 50 49 47 47 49 51 50 49 51 49 47 48 48 49 50 50 49 49 49 49 48 48 48 47 48 49 47 46 46 48 47 46 45 46 48 49 49 49 50 51 52 51 51 52 52 52 52 52 53 52 53 55 54 52 53 55 54 52 51 52 53 52 51 49 47
31 34 39 44 47 49 51 52 53 53 53 52 51 49 47 48 49 50 50 51 52 52 52 52 51 50 50 52 54 53 53 53 51 50 51 51 51 52 52 51 50 51 51 50 51 50 50 52 52 49 47 49 50 50 48 47 48 50 51 51 52 52 53 54 54 53 53 53 53 53 54 56 55 55 57 57 56 55 55 56 56 55 54 54 54 53 52 51
30 31 33 37 41 46 49 51 53 54 54 54 53 52 51 51 52 53 52 51 52 52 53 53 53 52 52 54 55 55 56 56 54 53 53 54 55 56 55 54 53 53 53 53 53 53 53 55 54 51 51 52 52 51 50 50 50 51 52 53 54 54 54 56 57 56 55 54 54 54 55 57 57 57 59 60 59 57 57 58 59 57 56 55 55 55 55 55
31 31 32 33 35 39 43 47 51 53 54 55 54 54 55 56 56 57 56 54 55 55 54 54 55 55 55 56 56 57 57 57 56 54 55 57 58 58 57 56 56 56 55 55 56 56 56 58 55 53 55 55 52 52 53 52 53 53 54 55 56 55 56 57 58 58 56 55 56 56 55 56 58 59 60 60 60 60 60 61 60 59 59 57 57 57 57 57
33 33 34 33 33 35 37 40 44 48 51 52 53 54 57 58 59 60 60 58 58 58 57 56 58 58 58 58 59 59 59 59 58 57 58 60 60 58 59 59 58 58 57 56 58 58 57 58 56 54 56 56 53 53 54 54 55 55 55 56 56 56 57 58 58 58 57 56 56 56 56 56 57 60 60 59 60 60 61 62 61 59 59 59 59 59 57 57
35 35 35 33 34 36 35 35 38 40 42 45 49 53 56 58 60 61 61 60 60 61 60 59 61 61 61 61 61 62 62 62 62 61 61 63 61 60 62 62 60 60 59 58 60 60 58 57 57 57 57 57 55 55 55 56 57 57 57 57 56 57 57 57 57 57 56 56 55 54 55 56 56 58 59 58 58 58 60 63 62 60 60 60 60 59 58 57
37 37 36 35 38 39 36 35 35 36 36 39 43 48 52 54 57 59 59 60 62 62 61 62 63 62 63 64 63 64 65 66 64 64 65 66 64 64 65 65 63 63 62 61 63 63 60 58 58 59 59 58 57 57 57 58 58 58 58 58 56 55 56 55 55 55 54 53 53 53 53 55 55 55 56 57 56 56 59 62 61 59 59 60 60 59 58 56
39 38 36 38 41 41 37 36 36 36 36 37 39 44 46 46 49 53 54 56 59 59 61 63 63 63 64 64 64 65 67 67 65 65 67 68 68 67 67 66 65 64 64 64 66 64 60 59 59 60 60 58 57 59 59 58 58 58 57 57 56 55 55 54 53 54 53 52 53 53 53 55 54 53 55 56 54 55 58 61 59 56 58 61 60 58 56 55
41 40 37 40 45 42 38 36 37 38 37 38 40 42 42 41 44 47 47 48 51 52 55 58 59 61 63 63 64 66 67 66 65 65 66 68 70 70 67 65 65 65 64 65 67 62 58 59 59 59 59 57 56 58 59 56 56 58 56 56 57 55 54 54 53 54 53 52 53 53 53 55 54 53 56 56 54 56 59 61 60 56 59 62 60 57 56 55
43 41 39 43 45 43 40 39 40 40 39 40 41 42 42 41 43 45 43 43 46 47 48 49 51 55 58 60 62 64 65 66 65 65 66 69 71 70 67 64 63 66 66 65 65 60 56 59 60 58 58 57 56 58 58 57 57 58 57 57 57 56 55 56 55 55 54 52 54 54 54 55 54 54 56 56 55 58 59 61 61 57 59 63 61 59 58 57
45 43 42 44 46 44 42 43 42 42 41 42 42 42 42 42 43 44 42 42 44 45 44 43 45 49 51 53 56 59 62 63 63 64 64 68 70 68 67 64 62 67 68 64 63 60 59 62 61 58 58 57 56 57 59 60 60 59 60 59 58 57 59 59 57 57 55 54 56 56 54 56 57 57 58 58 58 59 61 62 62 58 60 62 61 60 60 59
46 46 44 45 47 46 45 45 44 43 44 45 44 43 43 43 45 45 42 43 44 43 41 41 45 47 46 46 49 52 55 57 59 60 61 64 66 65 64 62 60 64 66 62 62 63 63 63 61 60 60 58 57 58 61 64 63 60 60 61 59 60 61 60 59 59 57 56 58 56 55 58 60 59 60 61 60 61 63 65 64 61 61 63 62 60 61 60
47 47 46 46 48 48 47 46 46 46 47 46 45 45 46 46 47 45 44 45 45 42 41 43 45 44 43 45 46 46 49 52 53 54 56 60 62 61 59 58 58 60 61 60 62 63 62 61 61 61 61 60 59 60 63 66 65 62 62 62 62 62 62 60 60 60 58 58 57 56 57 60 61 62 63 62 62 63 65 66 66 65 64 63 63 62 62 61
50 49 49 49 50 50 49 48 48 49 49 48 47 48 49 49 49 48 46 48 46 41 42 45 45 43 43 45 46 45 45 48 48 49 51 53 57 56 52 52 55 56 57 59 59 59 59 59 59 60 60 60 60 61 63 66 66 65 64 63 63 63 63 63 62 60 61 60 56 57 61 62 62 65 66 65 64 65 66 67 67 67 65 63 62 62 62 62
52 52 51 51 52 52 51 49 50 51 51 50 49 49 50 51 52 51 49 50 47 42 44 48 45 44 45 47 47 45 43 46 47 47 47 48 52 52 48 47 50 50 52 56 56 54 56 56 56 58 58 57 58 60 62 64 65 65 65 64 64 64 64 64 63 62 63 62 58 59 63 63 63 66 67 68 68 66 66 67 68 68 67 65 63 62 62 62
54 54 54 54 55 54 52 52 53 54 53 53 52 51 52 53 54 54 53 51 50 46 46 48 46 47 49 48 47 46 44 45 46 46 47 47 49 51 49 45 46 46 48 52 53 51 51 53 53 54 54 54 56 57 59 61 63 63 63 63 64 64 64 64 64 63 65 63 60 61 64 63 65 67 68 69 69 68 68 68 67 67 67 66 64 62 61 61
55 55 55 57 57 55 54 55 56 57 56 55 55 53 53 54 55 56 56 53 51 50 49 49 48 50 51 49 48 48 46 45 46 46 47 47 48 50 50 46 46 46 45 48 52 51 49 49 49 50 50 50 52 55 56 59 61 61 60 60 61 62 62 63 62 63 64 64 63 64 64 63 64 68 69 68 69 70 70 68 67 66 65 66 65 62 61 60
56 56 56 58 57 56 57 57 58 59 59 57 56 54 54 56 57 58 58 53 51 54 54 52 50 52 53 53 52 49 46 47 50 49 49 50 50 51 51 48 48 46 45 47 51 52 51 48 48 50 48 46 49 52 53 56 58 56 55 56 59 60 61 61 61 61 62 64 65 65 63 62 64 68 69 68 68 70 70 69 68 66 64 66 66 62 61 59
56 57 57 58 58 57 58 59 59 61 59 57 57 56 56 58 58 58 58 55 54 57 57 53 53 55 56 55 52 49 49 52 53 52 52 53 53 53 52 51 50 49 48 49 50 52 52 50 49 50 48 45 49 52 53 55 53 49 51 54 57 59 59 59 59 59 61 64 65 63 62 62 64 66 67 67 68 70 69 67 68 67 66 67 67 65 63 62
Wind_Direction
248 248 248 248 248 248 247 247 248 248 249 249 250 250 250 250 250 250 250 250 250 250 249 249 249 250 250 250 251 251 251 251 252 252 253 253 253 254 254 255 256 256 257 257 257 258 258 259 259 259 260 260 260 261 261 262 262 262 263 263 263 264 264 264 265 265 266 267 269 270 269 270 270 269 268 269 270 271 271 271 271 271 272 272 271 271 271 272
249 249 249 249 249 249 248 248 248 248 249 249 250 250 250 250 250 250 251 251 251 250 250 250 250 250 250 250 251 251 252 252 252 253 253 253 254 254 255 255 256 256 257 257 258 258 258 259 259 259 260 260 261 261 262 262 263 263 263 264 265 265 265 265 265 266 268 268 269 269 269 269 269 269 269 269 269 269 270 270 270 271 271 271 270 271 271 272
249 249 249 249 249 249 249 249 249 249 249 249 250 250 251 251 251 251 251 251 251 251 251 251 251 251 251 251 251 251 252 252 253 253 254 254 254 255 255 255 256 256 257 257 258 258 258 259 259 260 260 261 261 262 262 263 264 264 265 265 266 266 266 266 266 267 268 268 268 269 269 268 267 268 269 268 268 268 269 269 269 269 270 270 270 270 270 271
249 249 249 249 249 249 249 250 250 250 250 250 250 251 251 251 252 252 252 252 252 252 252 252 252 252 252 252 252 252 252 253 253 254 254 255 255 255 256 256 257 257 257 258 258 259 259 260 260 261 261 262 262 263 264 264 265 266 266 267 266 266 267 267 267 267 267 267 268 268 268 267 267 268 268 266 267 267 268 268 269 269 269 269 269 269 270 271
249 249 249 249 249 249 249 250 250 250 250 251 251 251 251 252 252 252 253 253 253 253 253 253 253 253 253 253 253 253 253 254 254 254 255 255 255 256 256 257 257 258 258 259 260 260 261 261 262 263 263 264 264 265 266 266 267 267 267 267 267 267 268 268 268 267 267 267 267 267 268 268 268 266 265 266 267 266 267 268 268 269 269 268 268 268 269 271
249 250 250 250 250 250 250 250 250 251 251 251 251 251 252 252 252 253 253 254 254 254 254 254 254 255 254 255 255 255 255 255 255 255 256 256 257 257 258 258 259 259 260 261 261 262 262 263 264 264 265 265 266 266 267 267 267 267 267 268 268 268 268 268 268 268 267 267 267 268 268 268 267 266 265 267 266 265 266 267 267 268 268 268 267 267 268 270
249 250 250 250 250 251 251 251 251 251 251 251 251 252 252 252 253 253 253 254 255 255 255 256 256 256 256 256 256 256 257 257 257 257 257 258 258 259 259 260 260 261 261 262 262 263 263 264 265 265 266 266 266 267 267 268 268 268 269 269 269 269 269 268 269 269 268 268 268 268 268 267 267 267 267 267 265 266 266 267 268 268 266 265 266 267 268 269
249 250 250 251 251 251 251 251 251 252 252 252 252 252 252 253 253 253 254 254 255 255 256 256 257 257 257 258 258 258 258 258 258 259 259 259 260 260 260 261 261 262 262 263 263 264 264 265 265 266 266 267 267 267 268 268 268 269 269 269 269 269 269 269 269 269 269 268 268 268 268 268 268 268 267 266 266 267 267 268 268 266 264 264 265 266 266 267
249 250 251 252 252 252 252 252 252 252 252 252 252 252 252 253 253 253 254 254 255 255 256 256 257 257 258 258 258 259 259 259 259 260 260 260 261 261 261 262 262 262 263 263 264 264 265 265 266 266 266 267 267 268 268 268 268 269 269 269 269 270 270 270 270 269 269 269 269 269 269 269 269 268 267 267 267 267 266 267 266 265 264 265 266 266 266 266
249 250 252 253 253 254 254 254 253 253 252 252 252 252 252 253 253 254 254 254 255 255 256 256 257 258 258 259 259 259 259 260 260 260 261 261 261 261 262 262 262 263 263 264 264 265 265 265 266 266 266 267 267 267 267 268 268 269 269 269 270 270 270 270 270 270 270 270 270 270 269 269 268 267 267 268 267 266 266 265 263 265 265 265 265 266 266 266
250 251 252 253 254 255 255 255 254 254 253 253 253 253 253 253 254 254 254 255 255 256 256 257 257 258 258 259 259 260 260 260 260 260 261 261 262 262 262 262 262 263 263 264 264 264 265 265 265 265 266 266 266 267 267 268 268 268 269 270 270 270 271 271 271 271 271 271 271 270 269 269 268 268 269 268 267 266 266 264 263 263 262 261 262 262 264 265
250 251 252 253 254 255 256 256 255 254 254 254 254 254 254 254 254 254 255 255 256 256 257 257 258 258 259 259 260 260 260 260 261 261 261 261 262 262 262 262 262 263 263 263 264 264 264 264 264 265 265 265 266 267 268 268 268 269 270 271 270 271 271 271 272 272 272 271 271 270 269 269 268 269 269 267 266 267 265 262 261 258 257 259 259 258 259 260
249 251 252 253 254 255 256 255 255 254 255 255 255 255 255 255 255 255 256 256 256 257 257 258 258 259 259 259 260 260 260 261 261 261 261 261 261 261 261 261 262 262 262 262 262 263 263 263 264 264 265 266 267 267 268 269 269 269 270 270 271 271 270 271 273 273 271 271 271 270 270 269 269 269 269 268 267 266 264 263 261 257 257 259 257 256 254 252
249 250 251 253 254 254 255 255 255 254 254 255 255 255 256 256 256 256 257 257 257 258 258 258 258 259 259 259 260 260 260 260 260 260 260 260 260 260 260 260 260 260 261 261 261 262 262 263 264 264 265 266 266 267 267 268 269 269 269 270 271 270 270 272 273 272 271 272 272 272 271 269 268 269 270 270 268 265 264 264 263 260 258 257 256 254 250 248
248 250 251 252 253 254 254 255 255 255 255 255 255 256 256 256 257 257 257 258 258 258 258 258 258 258 259 259 259 259 259 259 259 259 259 259 259 259 259 259 259 259 260 260 261 261 262 263 264 264 265 265 265 266 267 267 268 269 269 270 270 270 270 271 271 272 272 273 275 273 272 270 269 270 271 269 267 265 263 262 262 262 258 256 255 249 245 241
248 249 250 251 252 253 254 254 254 255 255 255 255 255 256 256 256 256 257 257 258 258 258 258 258 258 258 258 258 258 258 258 258 258 258 258 258 258 258 258 259 259 260 260 261 261 262 263 263 264 264 264 265 265 266 266 267 267 268 268 270 271 272 269 268 273 274 273 274 273 273 273 273 272 269 268 269 267 263 259 258 259 255 252 252 246 240 233
248 249 250 251 252 252 253 254 254 254 254 255 255 255 255 256 256 256 256 257 257 258 258 258 258 258 258 258 258 258 258 257 258 258 258 258 259 258 258 258 258 259 260 260 261 261 262 262 262 262 263 263 264 264 265 266 266 266 267 268 269 271 272 269 265 269 274 273 270 273 275 274 275 273 267 269 270 266 262 258 254 254 252 249 249 245 237 227
249 249 250 250 251 252 253 253 254 254 254 255 255 255 255 256 256 256 256 257 257 257 258 258 258 258 258 258 258 259 258 258 258 258 258 259 259 259 259 259 259 259 259 260 260 260 260 260 261 261 262 263 264 265 265 265 265 266 267 268 270 271 272 270 266 265 271 273 269 270 274 275 277 274 268 268 270 266 263 260 253 250 251 250 247 241 231 220
249 249 250 250 251 251 252 253 254 254 254 255 255 255 255 256 256 256 256 257 257 257 258 258 258 258 258 259 259 259 259 259 259 259 259 259 259 259 259 259 259 259 259 259 259 259 259 259 260 260 262 263 264 265 264 264 266 267 269 270 270 272 272 271 269 267 269 271 271 271 274 278 279 275 270 266 268 269 266 262 256 247 246 249 246 238 231 223
249 250 250 250 251 251 252 253 253 254 254 255 255 255 256 256 256 256 256 257 258 258 259 259 259 259 259 260 260 260 260 260 260 259 259 259 260 260 260 259 259 259 258 258 258 257 257 258 258 260 262 263 263 263 264 265 267 269 271 270 270 272 273 272 271 270 269 270 272 272 273 276 276 275 272 266 266 269 267 264 262 254 243 244 245 241 237 233
250 250 250 251 251 251 252 252 253 253 254 254 255 255 256 256 256 256 257 257 258 258 259 259 260 260 260 260 260 260 261 261 261 260 260 259 259 260 259 259 258 258 257 257 256 256 256 257 258 259 260 261 261 262 264 265 267 268 269 270 270 271 271 272 272 270 269 269 271 272 273 273 273 274 274 272 268 267 267 266 264 261 251 244 245 246 246 244
250 251 251 251 251 251 252 252 253 253 253 254 254 255 255 256 256 256 256 257 258 258 259 260 260 260 260 260 260 260 260 261 260 260 260 260 260 259 258 258 257 257 256 255 255 256 256 257 258 259 258 259 261 262 263 265 266 267 268 269 270 270 270 272 272 269 269 270 271 272 272 271 272 273 274 274 271 267 267 265 263 262 259 253 249 246 248 250
251 251 251 251 251 251 251 252 252 252 253 253 253 254 254 255 256 256 256 256 258 258 259 260 260 259 260 260 260 260 260 260 260 260 260 260 259 258 257 257 256 255 254 253 254 255 255 257 258 258 258 259 261 261 262 263 264 265 266 267 268 269 270 271 272 272 271 269 270 270 271 271 272 272 272 272 270 267 266 265 264 264 263 261 257 252 248 250
252 252 252 252 252 252 252 252 252 252 252 252 253 253 254 254 255 255 255 256 257 257 258 258 259 259 259 258 258 259 259 259 259 259 259 259 258 258 257 256 255 253 253 253 253 253 253 256 257 256 257 258 259 260 261 262 263 264 264 265 266 267 268 270 273 273 271 270 270 270 270 270 270 270 271 270 270 269 267 267 267 267 266 265 263 259 253 252
252 252 252 253 253 253 253 253 252 252 252 252 252 252 253 253 254 254 255 255 255 256 256 256 257 257 257 257 258 259 258 258 257 257 258 258 257 257 257 256 255 255 255 253 253 253 253 254 256 256 256 258 259 260 261 261 262 263 263 264 265 267 267 269 271 271 271 271 269 268 268 268 268 268 269 269 270 270 270 268 267 266 266 266 265 263 260 257
251 252 252 253 254 254 254 254 253 253 252 252 251 252 252 253 253 254 254 254 254 254 254 253 254 255 255 257 259 258 257 257 256 255 257 258 257 256 256 256 257 256 255 255 254 255 254 253 255 256 257 258 259 260 261 261 262 262 263 264 264 266 267 268 269 268 269 268 267 268 267 266 266 266 267 268 269 270 270 269 267 265 264 265 266 266 264 261
250 251 252 253 254 254 254 254 254 253 251 251 251 251 251 251 252 253 253 253 252 252 252 252 253 253 255 257 257 257 256 256 255 254 254 255 256 255 255 255 257 256 255 255 255 255 254 253 254 256 257 258 258 259 260 261 261 261 262 263 263 264 265 266 267 267 267 267 268 268 267 265 265 266 266 267 268 268 268 268 267 266 264 264 265 266 266 264
250 251 251 252 253 253 253 254 254 253 251 250 250 249 248 249 251 253 253 252 252 252 251 251 253 254 254 254 255 256 256 255 255 253 252 254 255 255 255 255 255 255 255 255 255 254 254 253 255 256 256 257 257 257 258 259 260 261 262 263 264 264 265 265 266 267 266 267 269 269 267 266 266 266 267 267 268 268 268 267 267 268 266 264 264 266 266 266
249 250 250 251 252 252 253 253 253 253 251 249 249 248 247 248 250 252 253 253 254 253 252 251 252 254 253 253 254 255 255 255 254 253 253 254 255 255 256 255 255 255 254 254 254 254 254 254 255 256 257 257 258 259 260 260 261 263 263 264 265 266 266 265 266 266 266 268 269 267 267 267 267 268 269 267 266 267 267 266 267 268 267 266 266 266 264 264
249 249 249 250 251 252 252 252 253 252 251 249 249 249 248 249 250 251 252 253 254 254 253 251 250 252 253 253 253 254 255 255 254 254 254 253 254 254 255 255 255 255 254 254 255 255 255 256 256 257 259 260 261 262 262 263 264 264 264 264 265 266 265 265 265 265 266 267 267 266 266 267 268 268 268 267 267 267 267 267 267 267 268 268 268 266 263 263
250 249 249 249 250 251 251 252 252 252 251 250 249 249 249 250 251 252 254 254 255 255 254 252 249 250 253 253 254 254 254 255 255 254 254 255 255 254 254 254 254 255 255 255 256 256 255 256 257 258 259 260 261 262 262 263 264 265 265 265 265 264 264 264 265 265 266 266 265 265 267 268 268 267 266 266 268 269 268 269 268 267 269 269 266 264 265 266
250 250 249 249 249 250 250 251 251 251 251 251 250 250 250 250 251 253 254 255 255 256 254 253 250 250 252 254 254 253 253 255 256 255 255 256 257 257 256 255 255 255 255 255 255 256 255 255 256 258 258 259 260 261 262 264 265 265 266 266 265 265 265 265 266 266 266 265 264 266 268 268 267 266 265 266 270 270 269 269 268 268 270 271 268 267 268 267
252 250 249 249 249 249 249 250 250 251 250 250 250 250 251 251 252 252 253 253 254 255 256 255 252 250 251 253 254 254 254 255 255 256 256 256 257 258 257 257 257 256 255 255 256 256 256 256 256 256 259 261 261 262 263 265 266 266 265 266 266 266 266 266 265 265 265 265 266 267 268 267 267 266 267 269 270 268 267 267 267 267 268 269 270 270 269 268
256 252 250 249 249 248 249 249 249 249 250 250 250 251 252 252 253 252 252 252 253 255 256 256 254 251 251 252 254 254 255 255 256 256 257 257 257 258 258 258 258 258 257 256 257 257 257 258 257 257 260 263 263 263 264 264 265 265 264 265 265 264 264 264 263 263 263 264 266 267 266 266 266 266 267 269 267 265 266 267 267 265 265 267 268 269 269 269
259 257 254 251 249 249 248 248 249 249 249 250 250 251 251 252 253 252 251 252 253 255 256 256 256 254 252 253 254 255 255 256 257 257 258 258 258 258 257 257 257 258 259 258 258 258 259 259 259 260 261 262 263 263 264 263 263 264 264 264 263 263 264 264 264 263 263 264 265 265 265 265 266 265 265 266 265 265 266 267 267 266 266 266 267 269 269 269
258 258 257 255 252 251 249 249 249 249 250 250 250 251 251 251 252 252 252 252 253 254 255 256 256 255 254 254 255 256 256 256 257 258 259 259 258 257 257 257 257 257 258 259 259 259 259 260 260 261 261 260 262 264 264 262 262 263 264 264 263 264 264 265 265 264 264 264 264 263 263 265 265 263 263 264 265 266 265 265 266 268 268 268 268 269 269 269
257 256 257 256 255 254 252 251 250 250 250 250 251 251 251 250 251 252 252 252 253 254 254 256 257 256 256 256 256 256 257 258 258 258 258 258 258 259 259 259 257 257 257 258 259 259 260 261 261 262 262 262 262 263 263 263 263 263 263 264 265 265 265 264 265 265 264 263 263 263 262 263 263 263 263 264 266 266 265 265 265 266 268 268 267 267 267 268
256 256 255 255 256 255 253 253 252 251 251 251 251 251 251 251 251 251 252 252 253 254 254 255 256 257 257 257 257 258 258 259 258 258 258 258 259 260 260 260 260 259 259 259 260 260 261 263 263 263 263 264 263 263 263 263 263 262 262 263 265 265 264 264 264 264 264 263 262 263 262 261 262 263 263 263 265 266 266 266 265 265 266 266 266 266 266 267
255 256 255 255 256 255 253 252 253 254 253 253 252 251 251 251 251 251 252 252 252 253 254 254 256 257 257 258 258 259 259 259 259 258 258 259 259 260 260 260 261 261 261 261 261 261 261 263 265 264 264 265 264 264 263 263 262 263 263 263 264 264 264 264 264 264 263 263 262 261 261 261 261 263 264 264 264 266 267 266 266 265 265 265 265 265 266 266
256 255 255 256 255 254 252 252 254 255 254 252 251 251 251 251 252 252 252 252 252 253 253 253 254 256 257 258 259 260 260 260 260 260 260 260 260 260 260 261 261 261 262 262 262 262 262 263 265 266 265 265 265 264 263 263 263 264 264 264 263 263 263 262 263 263 263 262 261 260 260 260 261 263 265 265 264 265 266 267 267 268 267 267 266 265 265 266
256 255 256 257 256 253 252 252 254 254 253 253 253 253 253 253 254 254 253 253 253 253 253 254 254 255 256 257 258 259 260 261 261 261 262 262 261 259 259 261 262 262 262 262 262 262 264 264 264 265 265 265 265 265 264 264 265 264 264 264 263 261 260 260 260 261 261 261 261 260 260 260 261 261 262 263 264 265 265 266 267 268 268 268 267 268 268 267
255 255 255 256 256 255 252 252 253 253 252 253 253 254 255 254 255 255 254 254 255 254 254 254 254 254 255 256 257 257 259 260 260 260 261 262 261 261 260 261 262 262 261 262 262 263 264 264 263 262 263 263 263 263 264 263 263 263 263 262 262 260 260 260 260 260 261 261 262 262 262 262 262 261 262 262 262 262 262 264 265 266 266 268 269 270 270 270
255 253 253 255 257 257 255 253 252 252 251 251 252 254 255 255 255 256 256 256 255 254 253 254 255 255 254 254 255 256 258 258 259 259 260 261 262 262 262 262 263 263 261 260 263 264 263 261 259 259 260 261 261 262 263 262 260 260 260 259 260 261 260 258 258 259 260 261 261 261 262 263 262 262 262 262 262 262 263 264 265 266 267 269 270 271 270 270
256 253 251 254 256 256 255 254 252 253 253 252 253 254 255 255 256 256 256 256 256 256 255 256 256 254 253 254 254 255 257 258 258 259 260 261 262 263 263 262 262 263 263 262 263 262 259 258 258 258 258 259 259 260 260 259 258 258 259 258 259 259 259 258 258 259 259 259 259 260 261 263 262 261 262 263 263 263 264 264 265 266 267 269 270 271 270 270
257 255 251 252 255 255 254 255 254 254 253 253 253 254 255 256 256 256 255 256 256 257 257 255 255 255 256 256 255 255 257 257 258 259 259 261 263 263 263 262 261 262 264 264 262 260 258 258 259 258 257 256 256 257 257 257 257 257 258 259 259 258 258 259 260 260 260 259 260 261 261 262 262 262 261 262 263 264 265 265 266 266 266 268 269 270 270 269
256 256 254 252 253 253 254 254 255 255 254 254 255 255 255 255 255 255 255 255 255 256 258 257 256 257 257 256 256 255 256 257 257 258 259 260 262 263 263 263 262 261 263 262 261 261 261 260 259 258 257 256 255 255 256 258 258 257 257 257 258 259 259 259 259 260 260 260 260 262 261 260 262 262 261 261 262 263 264 266 267 267 267 267 268 269 269 269
255 256 255 253 253 253 253 253 254 255 255 255 255 255 255 255 255 255 255 256 255 255 258 258 257 258 258 257 257 255 255 257 258 258 258 260 262 263 263 263 262 261 262 261 261 261 261 261 260 259 257 256 255 255 256 258 259 259 258 257 258 259 260 260 259 259 260 259 259 260 260 260 261 262 262 261 260 261 263 265 266 267 267 267 267 267 267 267
255 254 254 254 254 254 253 253 254 254 255 255 255 255 256 257 256 255 254 255 255 253 256 257 257 258 258 257 257 257 256 257 258 259 260 260 262 264 263 261 261 261 262 262 261 260 261 261 259 259 258 257 257 256 256 257 258 259 259 259 258 258 259 259 259 259 259 259 258 258 259 260 261 262 263 263 262 262 262 263 265 266 266 266 265 265 265 265
254 254 254 254 254 254 254 254 254 254 254 255 255 255 256 257 257 257 255 255 255 253 253 257 258 258 257 257 258 259 258 258 260 261 261 260 261 263 262 260 260 259 260 262 263 260 259 259 259 259 259 258 258 257 256 257 257 258 258 259 259 259 259 260 260 260 260 260 258 258 258 260 261 262 263 265 266 265 263 263 265 266 266 266 265 264 264 263
254 253 253 253 253 254 254 254 254 254 254 254 255 255 257 257 258 258 257 256 256 255 254 254 256 257 258 259 258 258 259 260 261 261 262 262 262 263 264 262 260 258 257 259 262 261 259 259 259 259 258 257 258 257 257 257 257 257 258 259 260 260 260 260 260 260 261 261 259 257 258 260 262 263 264 265 266 267 267 267 267 267 267 267 266 264 264 264
253 253 252 253 253 253 253 253 254 254 254 254 256 256 257 257 257 258 259 258 257 257 255 254 255 256 258 258 257 258 260 261 261 260 261 262 261 261 263 263 262 261 259 258 260 262 261 259 258 258 257 257 257 257 256 256 257 258 259 260 260 260 260 260 260 260 261 261 261 260 260 260 261 262 264 265 267 268 268 269 269 268 268 268 268 267 266 266
252 252 252 252 252 252 252 253 253 254 255 255 256 255 255 256 256 257 259 259 258 257 257 256 256 256 256 257 258 260 260 259 259 259 259 259 260 261 262 264 264 264 262 260 260 261 262 261 260 259 258 258 258 257 257 257 258 260 260 259 258 259 259 260 261 261 261 261 261 262 262 260 260 262 264 265 266 267 269 271 272 271 270 270 270 269 267 266